ALEXANDROUPOLIS_MIL current weather conditions

sailwx.info

Wind at 2 knots

Air temperature 4.0° C
Visibility: greater than 5.4 NM
Dewpoint -0.0° C

Last reported at 2019-Dec-05 20:50 UTC.
Time now 2019-Dec-06 00:47 UTC

Location: N 40°51' E 025°55'.
View on Google Maps.

See reports from other nearby stations

  
Tides and Currents Weather Stations Pressure Air Temp Water Temp Dewpoint Dewpoint Depression Visibility Wind Speed Wind Dir Waves Ship Positions
date/time (UTC)wind fromknots sea level pressurealtimeterstation pressurevisibilityair tempwater tempwave heightnotes
2019-Dec-05 20:50 5.4 4.0
2019-Dec-05 20:20 020 7 5.4 4.0
2019-Dec-05 19:50 020 7 5.4 4.0
2019-Dec-05 19:20 050 5 5.4 4.0
2019-Dec-05 18:50 050 5 5.4 4.0
2019-Dec-05 18:20 010 5 5.4 5.0
2019-Dec-05 17:50 050 5 5.4 5.0
2019-Dec-05 17:20 040 6 5.4 5.0
2019-Dec-05 16:50 5.4 5.0
2019-Dec-05 16:20 5.4 7.0
2019-Dec-05 15:50 5.4 8.0
2019-Dec-05 15:20 050 6 5.4 8.0
2019-Dec-05 14:50 040 6 5.4 8.0
2019-Dec-05 13:50 050 7 5.4 9.0
2019-Dec-05 13:20 040 9 5.4 9.0
2019-Dec-05 12:50 030 9 5.410.0
2019-Dec-05 12:20 030 9 5.410.0
2019-Dec-05 11:50 050 9 5.410.0
2019-Dec-05 10:50 030 8 5.410.0
2019-Dec-05 10:20 030 11 5.410.0
2019-Dec-05 09:50 040 11 5.4 9.0
2019-Dec-05 09:20 070 9 5.4 8.0
2019-Dec-05 08:50 090 6 5.4 7.0
2019-Dec-05 08:20 080 5 5.4 4.0
2019-Dec-05 07:50 080 5 5.4 3.0
2019-Dec-05 07:20 080 6 5.4 2.0
2019-Dec-05 06:50 090 6 5.4 1.0
2019-Dec-05 06:20 5.4-0.0
2019-Dec-05 05:50 5.4-2.0
2019-Dec-05 05:20 080 4 5.4-1.0
2019-Dec-05 04:50 5.4-1.0
2019-Dec-05 04:20 5.4-1.0
2019-Dec-05 03:50 090 4 5.4-1.0
2019-Dec-04 19:20 010 6 5.4 5.0
2019-Dec-04 18:50 010 6 5.4 5.0
2019-Dec-04 18:20 030 14 5.4 5.0
2019-Dec-04 17:50 030 14 5.4 5.0
2019-Dec-04 17:20 020 13 5.4 5.0
2019-Dec-04 16:50 020 13 5.4 5.0
2019-Dec-04 16:20 020 14 5.4 5.0
2019-Dec-04 15:50 020 14 5.4 5.0
2019-Dec-04 15:20 020 0 5.4 5.0
2019-Dec-04 14:50 020 0 5.4 5.0
2019-Dec-04 14:20 020 17 5.4 5.0
2019-Dec-04 13:50 020 17 5.4 5.0
2019-Dec-04 13:20 020 9 5.4 5.0
2019-Dec-04 12:50 020 9 5.4 5.0
2019-Dec-04 12:20 020 18 5.4 5.0
2019-Dec-04 11:50 020 18 5.4 5.0
2019-Dec-04 11:20 010 15 5.4 5.0
2019-Dec-04 10:50 010 18 5.4 5.0
2019-Dec-04 10:20 020 18 5.4 5.0
2019-Dec-04 09:50 020 18 5.4 5.0
2019-Dec-04 09:20 020 19 5.4 5.0
2019-Dec-04 08:50 020 18 5.4 5.0 Drizzle.
2019-Dec-04 08:20 020 17 5.4 4.0 Drizzle.
2019-Dec-04 07:50 020 20 5.4 4.0 Drizzle.
2019-Dec-04 07:20 020 14 gusting 25 5.4 4.0 Drizzle.
2019-Dec-04 06:50 020 19 5.4 4.0 Light rain.
2019-Dec-04 06:20 030 15 5.4 4.0 Light rain.
2019-Dec-04 05:50 030 14 5.4 4.0 Light rain.
2019-Dec-04 05:20 030 13 5.4 4.0 Light rain.
2019-Dec-04 04:50 030 15 5.4 4.0 Light rain.
2019-Dec-04 04:20 020 15 5.4 3.0 Light rain.
2019-Dec-04 03:50 030 13 5.4 4.0 Light rain.